User: anonymous   Login
Location: Ca�n Batista
(41.4099°N, 1.7752°E)
Time: 17:33:40
(UTC+00:00)
Language:

Meteor 2-12 Rocket - Orbit

View from above orbital plane
View from above orbital plane
View from above satellite
View from above satellite

Ground track
Ground track

The orbit data is extracted from the following two-line orbital elements,

1 15517U 85013B   21127.80420202  .00000023  00000-0  67908-5 0  9997
2 15517  82.5397  30.1987 0015214 158.3158 201.8650 13.84896819831806
Epoch (UTC): 07 May 2021 19:18:03
Eccentricity: 0.0015214
inclination: 82.5397°
perigee height: 935 km
apogee height: 958 km
right ascension of ascending node: 30.1987°
argument of perigee: 158.3158°
revolutions per day: 13.84896819
mean anomaly at epoch: 201.8650°
orbit number at epoch: 83180

The dashed part of the orbit path shows where the satellite is in the earth's shadow,  

DLR